Location: Bothwell
(41.7170°N, 112.2589°W)
Time: 01:10:18
(UTC+00:00)

STARLINK-36314 - Pass Details

Date: 19 April 2026
Orbit: 260 x 262 km, 97.3° (Epoch: 18 April)

Event Time Altitude Azimuth Distance (km) Brightness Sun altitude
Rises 04:05:06 0° 12° (NNE) 1,894 5.7 -19.5°
Reaches altitude 10° 04:06:55 10° 13° (NNE) 1,080 4.4 -19.8°
Enters shadow 04:07:00 11° 13° (NNE) 1,040 4.3 -19.8°
